WAT1632 LPFL-LPHR

Flight info

Callsign WAT1632
Flight time 0h 31m
Altitude 25000
Route 3931N03109W 3933N03108W 3933N03105W 3929N03102W 3925N03102W 3917N03102W DCT OBUDA DCT 3901N03033W 3855N03004W 3849N02935W DCT FATAG
Aircraft HDJT/L-SABDGRWY/H

Departure

Time 2026-04-21 17:00
Airport Flores Airport (LPFL)

Arrival

Time 2026-04-21 17:32
Airport Horta Airport (LPHR)
Time Latitude Longitude Altitude Speed Heading
2026-04-21 16:47 39.45839 -31.13086 97 ft 0 kts 81°
2026-04-21 16:51 39.45839 -31.13087 97 ft 0 kts 81°
2026-04-21 16:56 39.45838 -31.13080 97 ft 4 kts 122°
2026-04-21 16:57 39.45822 -31.13113 98 ft 11 kts 262°
2026-04-21 16:57 39.45778 -31.13201 100 ft 13 kts 162°
2026-04-21 16:57 39.45673 -31.13162 105 ft 18 kts 163°
2026-04-21 16:57 39.45523 -31.13121 106 ft 26 kts 169°
2026-04-21 16:58 39.45335 -31.13072 110 ft 26 kts 168°
2026-04-21 16:58 39.45168 -31.13021 108 ft 24 kts 168°
2026-04-21 16:58 39.45019 -31.12980 108 ft 19 kts 168°
2026-04-21 16:58 39.44930 -31.13000 108 ft 7 kts 161°
2026-04-21 16:59 39.44926 -31.12996 108 ft 0 kts 116°
2026-04-21 16:59 39.44923 -31.12989 108 ft 5 kts 116°
2026-04-21 16:59 39.44950 -31.12970 108 ft 8 kts 350°
2026-04-21 17:00 39.45034 -31.12994 108 ft 25 kts 348°
2026-04-21 17:00 39.45444 -31.13107 107 ft 97 kts 348°
2026-04-21 17:00 39.46247 -31.13294 447 ft 127 kts 347°
2026-04-21 17:00 39.47187 -31.13562 731 ft 152 kts 345°
2026-04-21 17:01 39.48328 -31.13808 1283 ft 183 kts 356°
2026-04-21 17:01 39.49610 -31.13236 1973 ft 216 kts 33°
2026-04-21 17:01 39.50407 -31.11572 2975 ft 221 kts 72°
2026-04-21 17:01 39.50210 -31.09541 3628 ft 246 kts 114°
2026-04-21 17:02 39.49026 -31.07936 4027 ft 251 kts 153°
2026-04-21 17:02 39.47364 -31.07319 4529 ft 250 kts 173°
2026-04-21 17:02 39.45675 -31.06971 5648 ft 245 kts 175°
2026-04-21 17:02 39.43980 -31.06628 6560 ft 249 kts 174°
2026-04-21 17:03 39.42236 -31.06249 7342 ft 258 kts 172°
2026-04-21 17:03 39.40444 -31.05790 8118 ft 268 kts 169°
2026-04-21 17:03 39.38605 -31.05603 9004 ft 263 kts 194°
2026-04-21 17:03 39.36861 -31.06249 9831 ft 262 kts 209°
2026-04-21 17:04 39.35157 -31.07176 10493 ft 271 kts 211°
2026-04-21 17:04 39.33395 -31.08130 11266 ft 275 kts 210°
2026-04-21 17:04 39.31515 -31.08837 12015 ft 290 kts 195°
2026-04-21 17:04 39.29450 -31.08822 12728 ft 305 kts 172°
2026-04-21 17:05 39.27386 -31.08046 13469 ft 313 kts 161°
2026-04-21 17:05 39.25290 -31.07193 14129 ft 318 kts 167°
2026-04-21 17:05 39.23121 -31.06601 14832 ft 320 kts 172°
2026-04-21 17:05 39.20924 -31.06076 15526 ft 323 kts 170°
2026-04-21 17:06 39.18725 -31.05426 16220 ft 326 kts 167°
2026-04-21 17:06 39.16514 -31.04728 16926 ft 328 kts 166°
2026-04-21 17:06 39.14415 -31.03565 17616 ft 330 kts 147°
2026-04-21 17:06 39.12576 -31.01799 18270 ft 329 kts 131°
2026-04-21 17:07 39.11134 -30.99588 18838 ft 325 kts 116°
2026-04-21 17:07 39.10119 -30.97025 19364 ft 319 kts 102°
2026-04-21 17:07 39.09525 -30.94290 19869 ft 317 kts 94°
2026-04-21 17:07 39.08959 -30.91527 20423 ft 322 kts 96°
2026-04-21 17:08 39.08357 -30.88732 20967 ft 325 kts 95°
2026-04-21 17:08 39.07773 -30.85909 21503 ft 328 kts 94°
2026-04-21 17:08 39.07190 -30.83052 22043 ft 332 kts 94°
2026-04-21 17:08 39.06589 -30.80167 22587 ft 336 kts 94°
2026-04-21 17:09 39.05369 -30.74304 23606 ft 343 kts 94°
2026-04-21 17:09 39.04748 -30.71332 24051 ft 346 kts 94°
2026-04-21 17:09 39.04121 -30.68325 24503 ft 349 kts 94°
2026-04-21 17:10 39.03487 -30.65273 24754 ft 360 kts 95°
2026-04-21 17:10 39.02836 -30.62114 24770 ft 378 kts 95°
2026-04-21 17:10 39.02130 -30.58772 24765 ft 395 kts 96°
2026-04-21 17:10 39.01395 -30.55312 24767 ft 408 kts 96°
2026-04-21 17:11 39.00648 -30.51744 24769 ft 418 kts 96°
2026-04-21 17:11 38.99880 -30.48080 24763 ft 428 kts 97°
2026-04-21 17:11 38.99085 -30.44352 24764 ft 436 kts 97°
2026-04-21 17:11 38.98283 -30.40573 24759 ft 442 kts 97°
2026-04-21 17:12 38.97479 -30.36748 24758 ft 443 kts 97°
2026-04-21 17:12 38.96666 -30.32939 24755 ft 441 kts 97°
2026-04-21 17:12 38.95852 -30.29129 24756 ft 441 kts 97°
2026-04-21 17:12 38.95049 -30.25326 24757 ft 441 kts 97°
2026-04-21 17:13 38.94241 -30.21529 24760 ft 441 kts 97°
2026-04-21 17:13 38.93421 -30.17727 24755 ft 442 kts 98°
2026-04-21 17:13 38.92609 -30.13922 24756 ft 442 kts 97°
2026-04-21 17:13 38.91798 -30.10117 24748 ft 442 kts 97°
2026-04-21 17:14 38.90986 -30.06357 24755 ft 442 kts 98°
2026-04-21 17:14 38.90167 -30.02561 24754 ft 442 kts 98°
2026-04-21 17:14 38.89352 -29.98752 24754 ft 442 kts 97°
2026-04-21 17:14 38.88531 -29.94949 24751 ft 442 kts 98°
2026-04-21 17:15 38.87702 -29.91150 24751 ft 442 kts 98°
2026-04-21 17:15 38.86880 -29.87343 24461 ft 435 kts 98°
2026-04-21 17:15 38.86080 -29.83701 23929 ft 416 kts 98°
2026-04-21 17:15 38.85288 -29.80175 23384 ft 406 kts 97°
2026-04-21 17:16 38.84550 -29.76712 22806 ft 398 kts 96°
2026-04-21 17:16 38.83837 -29.73297 22288 ft 395 kts 97°
2026-04-21 17:16 38.83087 -29.69912 21762 ft 393 kts 99°
2026-04-21 17:16 38.82333 -29.66557 21247 ft 389 kts 99°
2026-04-21 17:17 38.81615 -29.63232 20734 ft 385 kts 98°
2026-04-21 17:17 38.80907 -29.59933 20233 ft 382 kts 99°
2026-04-21 17:17 38.80180 -29.56667 19731 ft 379 kts 101°
2026-04-21 17:17 38.79555 -29.53414 19247 ft 372 kts 95°
2026-04-21 17:18 38.79172 -29.50157 18777 ft 368 kts 91°
2026-04-21 17:18 38.78804 -29.46919 18318 ft 367 kts 95°
2026-04-21 17:18 38.78270 -29.43720 17833 ft 366 kts 99°
2026-04-21 17:18 38.77705 -29.40551 17311 ft 362 kts 97°
2026-04-21 17:19 38.77260 -29.37435 16823 ft 358 kts 95°
2026-04-21 17:19 38.76836 -29.34292 16330 ft 357 kts 96°
2026-04-21 17:19 38.76341 -29.31202 15846 ft 351 kts 98°
2026-04-21 17:19 38.75835 -29.28116 15380 ft 353 kts 97°
2026-04-21 17:20 38.75380 -29.25044 14856 ft 349 kts 96°
2026-04-21 17:20 38.74931 -29.22007 14404 ft 346 kts 97°
2026-04-21 17:20 38.74454 -29.18991 13953 ft 344 kts 98°
2026-04-21 17:20 38.73983 -29.16000 13497 ft 341 kts 97°
2026-04-21 17:21 38.73535 -29.13032 13021 ft 338 kts 97°
2026-04-21 17:21 38.73083 -29.10093 12576 ft 336 kts 98°
2026-04-21 17:21 38.72618 -29.07172 12128 ft 333 kts 97°
2026-04-21 17:21 38.72171 -29.04268 11688 ft 331 kts 97°
2026-04-21 17:22 38.71878 -29.02356 11404 ft 329 kts 97°
2026-04-21 17:22 38.71274 -28.98526 10820 ft 327 kts 97°
2026-04-21 17:22 38.70831 -28.95684 10386 ft 324 kts 96°
2026-04-21 17:22 38.70395 -28.92862 9962 ft 322 kts 96°
2026-04-21 17:23 38.69952 -28.90071 9529 ft 319 kts 96°
2026-04-21 17:23 38.69518 -28.87287 9074 ft 317 kts 96°
2026-04-21 17:23 38.69084 -28.84567 8709 ft 315 kts 97°
2026-04-21 17:23 38.68614 -28.81835 8236 ft 312 kts 98°
2026-04-21 17:24 38.68180 -28.79124 7805 ft 305 kts 96°
2026-04-21 17:24 38.67839 -28.76441 7428 ft 306 kts 95°
2026-04-21 17:24 38.67432 -28.73766 7030 ft 306 kts 99°
2026-04-21 17:24 38.66956 -28.71127 6626 ft 303 kts 99°
2026-04-21 17:25 38.66533 -28.68497 6231 ft 300 kts 98°
2026-04-21 17:25 38.66149 -28.65889 5817 ft 297 kts 98°
2026-04-21 17:25 38.65730 -28.63295 5417 ft 297 kts 100°
2026-04-21 17:25 38.65304 -28.60725 5030 ft 294 kts 99°
2026-04-21 17:26 38.64765 -28.58235 4653 ft 283 kts 114°
2026-04-21 17:26 38.63709 -28.56223 4272 ft 263 kts 132°
2026-04-21 17:26 38.62381 -28.54737 3928 ft 248 kts 150°
2026-04-21 17:26 38.60857 -28.53776 3611 ft 242 kts 166°
2026-04-21 17:27 38.59239 -28.53350 3307 ft 230 kts 181°
2026-04-21 17:27 38.57711 -28.53423 3001 ft 211 kts 196°
2026-04-21 17:27 38.56354 -28.53877 2717 ft 194 kts 209°
2026-04-21 17:27 38.55190 -28.54595 2478 ft 178 kts 221°
2026-04-21 17:28 38.54263 -28.55485 2340 ft 167 kts 230°
2026-04-21 17:28 38.53478 -28.56542 2112 ft 158 kts 240°
2026-04-21 17:28 38.52879 -28.57684 1889 ft 152 kts 250°
2026-04-21 17:28 38.52441 -28.58899 1697 ft 151 kts 258°
2026-04-21 17:29 38.52154 -28.60175 1507 ft 150 kts 266°
2026-04-21 17:29 38.52025 -28.61485 1290 ft 148 kts 273°
2026-04-21 17:29 38.52036 -28.62786 1070 ft 145 kts 275°
2026-04-21 17:29 38.52021 -28.64013 900 ft 130 kts 274°
2026-04-21 17:30 38.51990 -28.65091 830 ft 108 kts 275°
2026-04-21 17:30 38.51984 -28.65996 740 ft 101 kts 277°
2026-04-21 17:30 38.52006 -28.66917 688 ft 106 kts 276°
2026-04-21 17:30 38.52018 -28.67801 546 ft 90 kts 271°
2026-04-21 17:31 38.52016 -28.68551 427 ft 84 kts 271°
2026-04-21 17:31 38.52018 -28.69365 385 ft 96 kts 268°
2026-04-21 17:31 38.51998 -28.70233 255 ft 99 kts 269°
2026-04-21 17:31 38.51990 -28.71097 123 ft 91 kts 270°
2026-04-21 17:32 38.51991 -28.71566 104 ft 69 kts 270°
2026-04-21 17:32 38.51989 -28.72176 88 ft 37 kts 270°
2026-04-21 17:32 38.51996 -28.72411 85 ft 14 kts 287°
2026-04-21 17:32 38.52000 -28.72458 82 ft 5 kts 159°
2026-04-21 17:33 38.51990 -28.72370 83 ft 15 kts 88°
2026-04-21 17:33 38.51990 -28.72201 87 ft 22 kts 91°
2026-04-21 17:33 38.51990 -28.71979 95 ft 28 kts 89°
2026-04-21 17:33 38.51992 -28.71719 98 ft 22 kts 89°
2026-04-21 17:34 38.52025 -28.71640 105 ft 5 kts
2026-04-21 17:34 38.52033 -28.71639 106 ft 2 kts
2026-04-21 17:34 38.52074 -28.71639 111 ft 8 kts 358°
2026-04-21 17:34 38.52117 -28.71626 112 ft 7 kts 61°
2026-04-21 17:35 38.52118 -28.71615 112 ft 0 kts 116°
2026-04-21 17:35 38.52116 -28.71615 112 ft 1 kts 198°
2026-04-21 17:35 38.52113 -28.71617 112 ft 1 kts 212°
2026-04-21 17:35 38.52105 -28.71620 112 ft 0 kts 175°
2026-04-21 17:41 38.52106 -28.71620 112 ft 0 kts 175°